This is the latest recevied weather packets stored in our database for station/object KC8QDR-1. If no packets are shown the sender has not sent any weather packets the latest 1 day(s).
| Time | Temp. | Humidity | Pressure | Rain* | Wind** | Luminosity | Snow |
|---|---|---|---|---|---|---|---|
| 1778069325 | 8.89° C | 96% | 1014.8 hPa | 0 mm | 0 m/s | - | - |
| 1778068816 | 8.33° C | 96% | 1014.7 hPa | 0 mm | 0 m/s | - | - |
| 1778067525 | 8.33° C | 97% | 1014.4 hPa | 0 mm | 0 m/s | - | - |
| 1778066925 | 8.33° C | 97% | 1014.5 hPa | 0.25 mm | 0 m/s | - | - |
| 1778066325 | 8.33° C | 97% | 1014.2 hPa | 0.51 mm | 0.45 m/s, 306° | - | - |
| 1778065725 | 8.33° C | 97% | 1014.3 hPa | 0.76 mm | 1.34 m/s, 320° | - | - |
| 1778065337 | 8.33° C | 97% | 1013.8 hPa | 0.76 mm | 0 m/s | - | - |
| 1778065215 | 8.33° C | 97% | 1013.8 hPa | 0.76 mm | 0 m/s | - | - |
| 1778065125 | 8.33° C | 97% | 1013.8 hPa | 0.76 mm | 0 m/s | - | - |
| 1778064525 | 8.33° C | 97% | 1013.4 hPa | 1.52 mm | 0.89 m/s, 19° | - | - |
| 1778063325 | 7.78° C | 97% | 1013.4 hPa | 2.03 mm | 0.45 m/s, 351° | - | - |
| 1778062125 | 7.78° C | 97% | 1014.2 hPa | 1.78 mm | 0 m/s | - | - |
| 1778061525 | 7.78° C | 97% | 1014.2 hPa | 2.03 mm | 2.24 m/s, 335° | - | - |
| 1778060325 | 7.78° C | 96% | 1014.2 hPa | 1.78 mm | 0.89 m/s, 331° | - | - |
| 1778059725 | 7.78° C | 96% | 1014 hPa | 1.78 mm | 0 m/s | - | - |
| 1778059125 | 7.78° C | 96% | 1013.9 hPa | 2.54 mm | 1.79 m/s, 359° | - | - |
| 1778058525 | 7.78° C | 96% | 1013.8 hPa | 3.3 mm | 2.24 m/s, 1° | - | - |
| 1778057325 | 7.78° C | 96% | 1014 hPa | 4.06 mm | 1.79 m/s, 0° | - | - |
| 1778056725 | 7.78° C | 96% | 1014.3 hPa | 4.32 mm | 0.89 m/s, 355° | - | - |
| 1778056125 | 7.78° C | 96% | 1014 hPa | 4.32 mm | 3.58 m/s, 352° | - | - |
| 1778055525 | 7.78° C | 96% | 1014 hPa | 4.06 mm | 3.13 m/s, 21° | - | - |
| 1778054925 | 8.33° C | 96% | 1014 hPa | 3.81 mm | 1.79 m/s, 12° | - | - |
| 1778054325 | 8.33° C | 96% | 1013.8 hPa | 3.81 mm | 3.13 m/s, 40° | - | - |
| 1778053125 | 8.89° C | 96% | 1013.5 hPa | 3.05 mm | 1.79 m/s, 29° | - | - |
| 1778052525 | 8.89° C | 96% | 1013.5 hPa | 3.3 mm | 1.79 m/s, 12° | - | - |
* Rain latest hour (hover to see other rain measurements)
** Current wind speed in m/s (hover to see current wind gust speed)